This is the latest recevied weather packets stored in our database for station/object KD8OZS. If no packets are shown the sender has not sent any weather packets the latest 10 day(s).
| Time | Temp. | Humidity | Pressure | Rain* | Wind** | Luminosity | Snow |
|---|---|---|---|---|---|---|---|
| 1787772255 | 25.56° C | 65% | 1008.5 hPa | 0 mm | - | 280 W/m² | - |
| 1787771954 | 25.56° C | 65% | 1008.4 hPa | 0 mm | - | 214 W/m² | - |
| 1787771649 | 25.56° C | 64% | 1008.5 hPa | 0 mm | - | 215 W/m² | - |
| 1787771343 | 25.56° C | 64% | 1008.5 hPa | 0 mm | - | 476 W/m² | - |
| 1787771038 | 26.11° C | 62% | 1008.5 hPa | 0 mm | - | 401 W/m² | - |
| 1787770737 | 26.11° C | 63% | 1008.6 hPa | 0 mm | - | 752 W/m² | - |
| 1787770432 | 25.56° C | 61% | 1008.6 hPa | 0 mm | - | 664 W/m² | - |
| 1787770130 | 25.56° C | 64% | 1008.4 hPa | 0 mm | - | 469 W/m² | - |
| 1787769830 | 26.11° C | 63% | 1008.6 hPa | 0 mm | - | 370 W/m² | - |
| 1787769530 | 25.56° C | 66% | 1008.6 hPa | 0 mm | - | 563 W/m² | - |
| 1787769224 | 26.11° C | 63% | 1008.3 hPa | 0 mm | - | 238 W/m² | - |
| 1787768924 | 26.67° C | 63% | 1008.5 hPa | 0 mm | - | 210 W/m² | - |
| 1787768619 | 27.22° C | 64% | 1008.6 hPa | 0 mm | - | 446 W/m² | - |
| 1787768316 | 26.67° C | 63% | 1008.6 hPa | 0 mm | - | 783 W/m² | - |
| 1787768012 | 26.67° C | 64% | 1008.9 hPa | 0 mm | - | 836 W/m² | - |
| 1787767711 | 26.11° C | 69% | 1008.8 hPa | 0 mm | - | 531 W/m² | - |
| 1787767406 | 26.67° C | 64% | 1008.8 hPa | 0 mm | - | 596 W/m² | - |
| 1787767104 | 26.11° C | 66% | 1008.7 hPa | 0 mm | - | 652 W/m² | - |
| 1787766803 | 25.56° C | 65% | 1009.1 hPa | 0 mm | - | 726 W/m² | - |
| 1787766503 | 25° C | 67% | 1009 hPa | 0 mm | - | 718 W/m² | - |
| 1787766197 | 25° C | 70% | 1009.2 hPa | 0 mm | - | 230 W/m² | - |
| 1787765892 | 25° C | 65% | 1009.3 hPa | 0 mm | - | 267 W/m² | - |
| 1787765589 | 25° C | 67% | 1009.4 hPa | 0 mm | - | 514 W/m² | - |
| 1787765283 | 25.56° C | 67% | 1009.5 hPa | 0 mm | - | 348 W/m² | - |
| 1787764983 | 25° C | 67% | 1009.3 hPa | 0 mm | - | 186 W/m² | - |
* Rain latest hour (hover to see other rain measurements)
** Current wind speed in m/s (hover to see current wind gust speed)